Have a Safe July 4th! 

Flight Track Log - Related Links

Times and Time Zones

All times are in EDT time to prevent confusion due to time zone crossing. See the EJA841 flight status page for this flight to view local times or setup timezone preferences in your user account.

Time Position Orientation Groundspeed Altitude Reporting Facility
EDT Latitude Longitude Course Direction KTS MPH feet Rate Location/Type
Sat 03:01:24 PM 36.0503 -95.9831 330° Northwest 168 193 1,400  Level Kansas City Center
Sat 03:02:47 PM 36.1083 -96.0247 330° Northwest 194 223 3,800 2,672 Climbing Kansas City Center
Sat 03:03:23 PM 36.1475 -96.0214 North 222 255 6,700 4,800 Climbing Kansas City Center
Sat 03:03:42 PM 36.1689 -96.0219 359° North 247 284 8,200 3,148 Climbing Kansas City Center
Sat 03:04:24 PM 36.2181 -96.0403 343° North 278 320 9,900 1,029 Climbing Kansas City Center
Sat 03:05:27 PM 36.2825 -96.1089 319° Northwest 301 346 10,000 48 Climbing Kansas City Center
Sat 03:06:28 PM 36.3467 -96.1778 319° Northwest 302 348 10,000  Level Kansas City Center
Sat 03:07:29 PM 36.4125 -96.2464 320° Northwest 302 348 10,000  Level Kansas City Center
Sat 03:08:32 PM 36.4786 -96.3142 321° Northwest 302 348 10,000  Level Kansas City Center
Sat 03:09:33 PM 36.5431 -96.3833 319° Northwest 305 351 10,000  Level Kansas City Center
Sat 03:10:35 PM 36.6092 -96.4528 320° Northwest 305 351 10,000  Level Kansas City Center
Sat 03:11:39 PM 36.6739 -96.5225 319° Northwest 305 351 10,000  Level Kansas City Center
Sat 03:12:39 PM 36.7525 -96.6058 320° Northwest 305 351 10,000  Level Kansas City Center
Sat 03:13:42 PM 36.8172 -96.6753 319° Northwest 305 351 10,000  Level Kansas City Center
Sat 03:14:44 PM 36.8822 -96.7456 319° Northwest 306 352 10,000  Level Kansas City Center
Sat 03:15:45 PM 36.9467 -96.8153 319° Northwest 306 352 10,000  Level Kansas City Center
Sat 03:15:54 PM 36.9603 -96.8325 315° West 309 356 10,000  Level Kansas City Center
Sat 03:16:36 PM 37.0053 -96.8803 320° Northwest 308 354 10,000  Level Kansas City Center
Sat 03:16:45 PM 37.0117 -96.8850 329° Northwest 307 353 10,000  Level Kansas City Center
Sat 03:17:48 PM 37.0761 -96.9561 319° Northwest 307 353 10,000 -450 Level Kansas City Center
Sat 03:18:45 PM 37.1403 -97.0292 318° Northwest 283 326 9,100 -762 Descending Kansas City Center
Sat 03:18:51 PM 37.1392 -97.0253 110° East 297 342 9,200 -1,500 Climbing Kansas City Center
Sat 03:19:41 PM 37.1886 -97.0900 314° West 264 304 7,700 -1,742 Descending Kansas City Center
Sat 03:19:53 PM 37.2008 -97.1028 320° Northwest 276 318 7,400 -1,521 Descending Kansas City Center
Sat 03:20:52 PM 37.2556 -97.1689 316° Northwest 266 306 5,900 -1,452 Descending Kansas City Center
Sat 03:20:55 PM 37.2533 -97.1664 138° Southeast 267 307 5,900 -898 Level Kansas City Center
Sat 03:22:59 PM 37.3581 -97.2939 328° Northwest 266 306 4,000 -941 Descending Kansas City Center
Sat 03:24:00 PM 37.4069 -97.3539 316° Northwest 258 297 3,000 -896 Descending Kansas City Center
Sat 03:24:06 PM 37.4158 -97.3650 315° West 218 251 3,000  Level Kansas City Center
Sat 03:24:48 PM 37.4444 -97.4000 316° Northwest 191 220 3,000  Level Kansas City Center
Sat 03:25:00 PM 37.4461 -97.4014 327° Northwest 217 250 3,000  Level Kansas City Center
Sat 03:26:02 PM 37.4864 -97.4514 315° West 207 238 3,000  Level Kansas City Center
Sat 03:26:50 PM 37.5358 -97.4756 339° North 212 244 3,000  Level Kansas City Center
Sat 03:27:05 PM 37.5492 -97.4686 22° Northeast 208 239 3,000 -658 Level Kansas City Center
Sat 03:28:03 PM 37.5983 -97.4475 19° North 190 219 2,200 -787 Descending Kansas City Center
Sat 03:28:06 PM 37.5997 -97.4453 52° Northeast 201 231 2,200 -537 Level Kansas City Center
Sat 03:29:10 PM 37.6383 -97.4258 22° Northeast 175 201 1,600 -563 Descending Kansas City Center
Sat 03:31:00 PM 37.6333 -97.4167 322° Northwest  Level FlightAware Approximate

Login

Don't have an account? Register now (free) for customized features, flight alerts, and more!